Regional Weather Roundup
Issued by NWS

Home | Current Version | Previous Version | Text Only | Print | Product List | Glossary Off
Versions: 1 2 3 4 5 6 7 8 9 10 11 12 13 14 15 16 17 18 19 20 21 22 23 24 25 26 27 28 29 30 31 32 33 34 35 36 37 38 39 40 41 42 43 44 45 46 47 48 49 50

000
ASUS43 KMPX 040110
RWRMN
WEATHER ROUNDUP FOR MINNESOTA
NATIONAL WEATHER SERVICE TWIN CITIES/CHANHASSEN MN
800 PM CDT THU SEP 03 2015


NOTE: "FAIR" INDICATES FEW OR NO CLOUDS BELOW 12,000 FEET WITH NO
SIGNIFICANT WEATHER AND/OR OBSTRUCTIONS TO VISIBILITY. N/A MEANS
CURRENT SKY AND/OR WEATHER CONDITIONS ARE NOT AVAILABLE.

MNZ060>063-068>070-040200-
   Twin Cities Metro

CITY           SKY/WX    TMP DP  RH WIND       PRES   REMARKS
TWIN CITIES    PTCLDY    80  71  74 E10       29.86F
ST PAUL        CLEAR     79  71  76 E5        29.87S
CRYSTAL        CLEAR     81  71  71 E7        29.85S
LAKEVILLE      CLEAR     75  73  94 E5        29.87S
EDEN PRAIRIE   CLEAR     80  72  76 E9        29.85S
SOUTH ST PAUL  CLEAR     79  71  74 E5        29.87S
LAKE ELMO      FAIR      77  70  78 E3        29.89S
$$
MNZ001>005-007-008-013>017-022>024-027-028-040200-
   Northwest Minnesota

CITY           SKY/WX    TMP DP  RH WIND       PRES   REMARKS
BEMIDJI        CLEAR     75  67  74 SE10G16   29.86S
HALLOCK        CLEAR     86  70  58 SE13      29.70R HX  90
ROSEAU         CLEAR     79  70  73 SE14      29.78S
WARROAD        CLEAR     77  70  78 SE7       29.80S
THIEF RVR FALL CLEAR     81  70  69 SE9       29.77S
CROOKSTON      PTCLDY    84  70  61 S15G24    29.74S
FOSSTON        CLEAR     79  68  69 SE9       29.81S
DETROIT LAKES  CLEAR     81  72  74 SE16      29.83S
MOORHEAD       CLEAR     82  73  74 SE9       29.76R
PARK RAPIDS    CLEAR     79  68  69 SE9       29.86S
MAHNOMEN       FAIR      80  72  75 SE10G17   29.79S
$$
MNZ006-009>011-018-025>026-040200-
   North Central Minnesota

CITY           SKY/WX    TMP DP  RH WIND       PRES   REMARKS
BAUDETTE       CLEAR     77  64  64 SE10      29.84R
FLAG ISLAND    CLEAR     77  64  65 SE15      29.80S
INTL FALLS     PTCLDY    73  64  73 SE6       29.89R
WASKISH        CLEAR     73  64  73 E7        29.86R
BIG FORK       CLEAR     73  61  64 SE5       29.91S
LONGVILLE      CLEAR     73  66  78 E3        29.89S
GRAND RAPIDS     N/A     72  63  73 SE8       29.92R
CRANE LAKE     CLEAR     66  64  94 CALM      29.95R
ORR            CLEAR     70  59  68 SE2       29.91S
COOK           CLEAR     70  61  73 CALM      29.95S
WALKER         FAIR      75  68  77 SE6       29.87S
$$
MNZ012-019>021-037-040200-
   Northeast Minnesota

CITY           SKY/WX    TMP DP  RH WIND       PRES   REMARKS
DULUTH         CLEAR     62  51  67 E9        29.96S
ELY            CLEAR     68  52  56 SE5       29.97S
HIBBING        CLEAR     66  58  75 SE8       29.94S
EVELETH        CLEAR     68  54  60 E3        29.96F
DULUTH HARBOR  CLEAR     61  57  88 E9        29.96S
TWO HARBORS    CLEAR     63  54  72 NE6       29.96S
SILVER BAY     CLEAR     63  52  67 NE3       29.96F
GRAND MARAIS     N/A     64  56  75 NE6       29.97S
G MARAIS ARPRT CLEAR     63  50  63 E3        30.02F
$$
MNZ029>031-032-039>041-046>048-054>057-064-040200-
   West Central Minnesota

CITY           SKY/WX    TMP DP  RH WIND       PRES   REMARKS
FERGUS FALLS   CLEAR     82  73  74 SE10      29.78R
WHEATON        CLEAR     79  72  78 SE9       29.79
MORRIS         CLEAR     81  75  83 E9        29.80R
ALEXANDRIA     CLEAR     79  73  82 SE13      29.86R
ELBOW LAKE     FAIR      80  74  82 SE12      29.81R HAZE
WADENA         CLEAR     77  70  78 E9        29.85S
GLENWOOD       CLEAR     79  73  83 E8        29.85F
APPLETON       CLEAR     82  73  74 E8        29.78S
BENSON         CLEAR     82  73  74 SE6       29.81R
ORTONVILLE     CLEAR     82  73  74 SE8       29.78R
MADISON        CLEAR     81  75  83 SE9       29.78S
WILLMAR        FAIR      82  75  78 E12       29.83S
$$
MNZ033>034-036-042>043-049>051-058-059-040200-
   Central Minnesota

CITY           SKY/WX    TMP DP  RH WIND       PRES   REMARKS
ST CLOUD       CLEAR     77  71  82 E7        29.86S
SAUK CENTRE    FAIR      78  72  84 E8        29.86R
PAYNESVILLE    MOCLDY    79  73  80 NE7       29.86R
AITKIN         CLEAR     73  66  78 E5        29.89S
PINE RIVER     CLEAR     75  68  78 SE5       29.92R
BRAINERD       CLEAR     76  68  76 SE5       29.89R
STAPLES        PTCLDY    77  70  78 SE6       29.86F
LONG PRAIRIE   FAIR      77  70  78 E8        29.87S
LITTLE FALLS   CLEAR     77  68  73 E6        29.88R
LITCHFIELD     CLEAR     79  75  89 E8        29.86S
BUFFALO        CLEAR     77  71  80 E5        29.87S
MAPLE LAKE     CLEAR     78  73  85 E6        29.87S
$$
MNZ037-044-045-052-053-040200-
   East Central Minnesota

CITY           SKY/WX    TMP DP  RH WIND       PRES   REMARKS
PRINCETON      CLEAR     79  70  73 E6        29.88S
MORA           CLEAR     72  64  78 E3        29.91S
CAMBRIDGE      CLEAR     79  66  65 E5        29.87S
RUSH CITY      CLEAR     74  68  82 CALM      29.90S
MOOSE LAKE     CLEAR     63  57  82 NE8       29.92S
HINCKLEY       FAIR      73  70  88 CALM      29.91S
CLOQUET        CLEAR     63  52  67 E7        29.95F
MCGREGOR       CLEAR     68  63  83 E7        29.93R
$$
MNZ071>073-080-081-089-090-097-098-040200-
   Southwest Minnesota

CITY           SKY/WX    TMP DP  RH WIND       PRES   REMARKS
MONTEVIDEO     CLEAR     81  75  83 SE9       29.81S
GRANITE FALLS  PTCLDY    82  75  78 E6        29.81S
CANBY          CLEAR     80  73  78 SE7       29.79S
MARSHALL       CLEAR     82  72  69 SE9       29.81S
REDWOOD FALLS  MOCLDY    83  75  77 E6        29.81R HX  90
OLIVIA         CLEAR     81  72  74 SE6       29.82R
PIPESTONE      CLEAR     81  72  74 S7        29.82S
WINDOM         CLEAR     81  73  78 SE6       29.83S
WORTHINGTON    PTCLDY    77  72  83 SE6       29.83S
JACKSON        CLEAR     79  73  83 SE5       29.85R
TRACY          CLEAR     80  74  82 S5        29.82R
SLAYTON        CLEAR     77  74  91 CALM      29.83S
$$
MNZ065>067-074>077-082>085-091>093-040200-
   South Central Minnesota

CITY           SKY/WX    TMP DP  RH WIND       PRES   REMARKS
MANKATO        CLEAR     81  75  83 E7        29.84S
NEW ULM        CLEAR     82  75  78 SE7       29.82S
ST JAMES       CLEAR     81  75  83 SE5       29.83S
FAIRMONT       CLEAR     81  68  65 SE8       29.83S
GLENCOE        CLEAR     80  77  89 E8        29.84S
FARIBAULT      CLEAR     81  75  83 E7        29.87S
OWATONNA       CLEAR     81  73  78 E8        29.86F
WASECA         CLEAR     79  73  83 E6        29.86F
ALBERT LEA     CLEAR     81  73  78 SE6       29.86S
$$
MNZ078>079-086>088-094>096-040200-
   Southeast Minnesota

CITY           SKY/WX    TMP DP  RH WIND       PRES   REMARKS
ROCHESTER      CLEAR     78  74  87 E7        29.90R
RED WING       CLEAR     79  72  78 E5        29.86S
STANTON        CLEAR     79  72  80 E5        29.86S
DODGE CENTER   CLEAR     79  73  83 E3        29.89S
WINONA         CLEAR     79  70  73 E5        29.88F
AUSTIN         PTCLDY    79  75  89 SE3       29.87S
PRESTON        PTCLDY    81  72  73 SE3       29.90S
$$
ABBREVIATIONS USED IN REMARKS
   TC - TEMPERATURES IN CELSIUS
  WCI - WIND CHILL INDEX
   HX - HEAT INDEX
  VSB - VISIBILITY
$$


USA.gov is the U.S. government's official web portal to all federal, state and local government web resources and services.